Theta_e
322 324 327 327 328 328 331 333 334 337 331 330 334 333 329 329 324 317 318 319 321 322 322 323 323 323 324 326 329 335 334 331 333 333 336 331 321 327 328 325 329 328 328 330 333 333 331 333 335 335 336 336 336 337 337 337 337 338 337 337 338 338 338 338 339 338 339 339 339 339 339 338 338 338 337 337 336 336 336 336 337 337 338 338 339 339 339 339 339 338 336 336 335 335 335 334 334
322 327 329 327 329 326 334 338 337 338 334 331 331 332 331 326 321 320 321 322 326 322 321 324 325 327 327 327 326 329 328 325 327 330 327 321 321 327 325 326 328 328 328 329 332 332 331 333 333 333 334 334 334 335 335 335 335 336 336 337 337 337 338 338 338 338 338 338 338 337 337 337 336 336 336 336 335 335 334 334 335 335 336 337 337 337 337 337 337 336 335 335 334 333 333 332 332
323 329 329 328 328 329 339 337 336 333 326 324 328 334 328 322 323 326 324 322 323 320 321 322 323 326 324 325 322 324 328 326 324 325 321 317 322 325 324 325 326 328 327 327 330 331 332 332 332 332 332 333 333 333 333 333 334 333 334 335 336 336 336 336 336 336 336 336 335 335 335 335 334 333 333 333 333 332 332 333 333 333 333 334 334 334 333 333 334 333 332 332 332 331 331 329 329
326 329 327 328 329 336 347 337 340 336 324 327 332 337 334 327 327 329 328 324 321 318 320 319 321 320 319 325 323 321 327 327 322 323 324 318 321 325 324 324 324 326 325 325 326 328 329 329 329 331 331 332 332 332 332 332 332 332 332 333 334 334 333 334 334 334 334 333 333 333 333 332 331 330 330 330 329 328 329 330 331 330 330 331 331 331 330 330 330 330 328 328 329 327 325 324 324
326 328 324 328 332 336 340 331 338 334 325 335 335 338 343 334 329 332 330 324 321 320 320 319 321 318 316 322 322 324 328 326 319 317 321 319 321 324 323 323 323 322 322 322 323 324 324 325 325 328 330 330 331 331 330 330 330 330 330 331 332 331 331 331 331 332 331 331 330 330 330 329 329 328 327 327 326 324 324 325 326 326 326 327 327 327 326 326 326 325 324 323 323 319 317 316 316
325 326 324 324 324 328 334 328 333 333 329 334 334 338 342 333 327 331 329 322 321 322 319 318 319 318 319 321 320 323 323 322 319 317 317 319 321 323 324 323 322 321 320 320 321 322 322 323 324 327 329 329 330 329 329 329 328 326 325 328 330 329 328 329 329 329 329 329 328 328 328 327 327 326 325 323 321 319 319 319 320 321 321 322 322 322 320 319 318 316 313 311 310 307 306 307 307
323 324 327 326 324 328 336 335 335 339 333 329 333 335 331 328 324 325 324 321 320 320 317 318 319 317 319 320 320 320 317 318 318 318 317 318 321 322 324 323 322 321 321 320 319 321 322 323 324 327 328 328 329 328 328 327 325 321 321 326 327 328 327 327 327 326 326 327 326 327 327 326 325 323 320 317 315 313 313 312 312 313 313 315 315 314 312 309 308 305 303 301 300 300 300 300 300
323 327 330 333 332 328 331 333 333 335 330 324 328 329 326 326 323 323 323 321 320 319 317 319 319 317 318 317 323 321 314 317 317 317 316 317 321 322 324 323 323 322 322 320 318 321 322 324 325 327 327 327 327 326 327 325 323 319 321 324 325 326 325 325 323 323 324 324 324 324 324 322 319 316 313 310 308 306 305 305 304 304 304 305 306 305 305 303 302 301 299 298 298 298 298 298 298
322 325 326 331 328 325 330 330 327 327 328 325 322 324 325 323 322 323 324 322 319 319 319 321 319 316 318 318 325 322 314 318 317 316 316 318 321 322 323 322 322 321 322 322 320 321 321 324 325 326 326 326 326 325 325 323 320 316 318 319 320 321 321 321 319 319 320 319 318 317 316 313 310 307 305 304 302 301 301 300 300 300 299 300 301 300 300 300 300 300 299 298 298 298 298 298 298
323 323 324 329 324 323 327 326 326 327 329 328 322 322 323 322 322 320 322 323 319 319 318 318 316 315 318 322 326 319 316 317 316 316 316 319 321 321 322 322 322 321 321 322 322 320 320 321 323 326 325 325 325 324 322 318 315 312 314 316 316 316 316 316 313 312 311 309 308 306 305 303 303 302 301 300 299 299 298 298 298 298 298 299 298 298 299 299 300 300 300 299 298 298 298 298 299
329 329 328 327 326 324 324 326 330 332 330 326 324 324 319 319 321 318 320 321 320 318 317 316 316 320 317 323 329 317 314 316 316 317 316 319 321 320 321 321 321 321 320 321 321 319 318 318 321 325 324 324 324 324 321 316 312 311 312 312 311 311 310 309 307 305 303 302 302 301 300 299 299 299 298 298 298 298 297 297 297 298 298 298 298 298 298 298 299 299 299 299 299 298 298 298 298
328 334 336 330 331 329 327 332 333 333 332 326 327 325 317 317 319 319 320 320 321 319 319 317 317 321 317 323 329 314 311 315 316 316 317 319 320 320 320 321 321 321 320 320 321 319 316 315 319 323 323 323 323 323 321 314 310 308 307 306 305 305 304 303 302 301 300 300 299 298 298 298 298 298 298 297 297 297 297 297 297 297 298 298 298 299 299 298 298 297 298 298 298 298 297 297 297
331 335 337 331 333 330 326 333 334 332 332 332 329 319 315 319 320 321 322 320 320 320 321 318 316 316 317 324 325 318 315 315 315 315 317 318 319 319 319 320 320 321 321 320 321 318 316 315 318 321 322 321 320 321 317 310 306 303 303 302 302 301 301 300 299 299 298 298 298 297 297 297 297 297 297 297 297 297 297 296 297 298 299 299 299 299 299 298 297 297 297 297 297 297 297 297 296
331 336 335 326 329 330 327 330 332 327 326 334 328 316 315 319 320 321 320 320 320 321 318 315 315 315 319 321 325 333 324 314 315 315 316 318 318 318 318 319 320 320 321 320 319 317 316 315 317 319 319 318 317 317 312 306 304 302 301 301 300 300 299 298 298 298 297 297 297 297 297 297 297 297 297 297 297 296 296 296 296 297 299 299 299 298 298 297 296 296 296 296 296 296 296 296 296
324 337 336 327 328 327 326 326 325 322 322 329 323 315 317 317 319 320 318 319 320 318 314 312 314 316 320 320 325 332 319 312 315 314 316 317 316 317 317 318 319 319 319 319 317 316 315 315 316 316 316 314 312 312 308 305 303 301 300 299 299 298 298 297 297 297 297 297 297 297 297 297 297 297 297 296 296 296 296 296 296 296 297 297 297 297 296 295 295 295 296 296 296 296 296 296 296
327 340 333 327 329 324 324 324 321 322 326 333 323 315 318 318 317 318 317 316 318 316 314 316 314 314 319 321 320 315 311 313 314 313 315 314 314 315 315 316 318 318 318 318 317 316 314 314 315 314 313 311 309 307 306 304 302 301 300 298 297 297 297 297 297 297 297 297 297 297 297 297 297 297 297 296 296 296 296 296 296 296 296 296 296 296 295 295 295 295 295 295 295 295 295 295 295
328 334 327 325 329 325 326 326 322 322 329 335 326 317 318 320 317 315 313 313 318 318 318 320 314 313 318 318 313 308 310 312 311 312 312 311 311 311 313 315 316 317 318 317 318 317 314 313 314 313 311 309 307 305 304 302 301 300 299 298 297 297 297 296 297 297 297 297 297 297 297 297 297 297 297 297 296 296 296 296 296 296 296 296 296 296 295 295 294 294 295 294 294 295 295 295 295
324 327 323 322 328 328 329 331 326 321 323 325 321 319 318 321 321 316 314 315 318 317 318 320 316 314 313 310 309 310 310 310 310 310 309 308 308 309 311 313 316 317 317 317 318 317 315 313 312 311 309 307 306 304 303 302 300 299 298 297 297 297 297 296 297 297 297 297 297 297 297 297 297 297 297 297 297 296 296 296 296 296 296 296 295 295 295 295 295 294 294 294 294 294 294 294 295
328 329 322 325 331 328 328 331 327 321 320 320 319 319 317 319 319 315 316 319 319 317 319 318 318 318 313 308 308 309 308 308 309 308 307 306 306 307 309 311 313 314 316 316 316 316 316 314 312 310 307 306 305 304 303 301 300 298 297 297 296 296 296 296 296 296 296 296 297 297 297 297 297 297 297 297 297 297 296 296 296 296 296 296 296 296 295 295 295 295 295 295 294 294 294 294 294
330 327 323 332 331 325 326 325 323 321 319 318 319 317 316 319 316 314 317 320 319 318 318 317 320 321 319 315 307 306 307 306 307 306 305 305 305 307 308 309 310 312 314 314 314 315 315 314 311 309 307 305 304 303 302 301 299 298 297 297 297 296 296 296 296 296 296 296 297 297 297 297 297 297 297 297 297 297 296 296 296 296 296 296 296 295 295 295 295 295 295 295 294 294 294 294 294
326 323 326 335 326 322 325 323 322 322 317 316 318 315 316 319 316 315 317 318 317 317 317 317 319 319 321 322 309 305 305 304 304 305 304 304 305 306 307 308 309 311 312 312 313 313 313 312 311 309 307 305 303 302 301 300 298 298 297 297 297 296 296 296 296 296 296 296 296 297 297 297 297 297 297 297 296 296 296 296 296 296 296 295 295 295 295 294 294 294 294 294 294 294 294 294 294
324 323 326 330 322 320 321 322 323 321 316 316 317 316 316 316 315 317 317 316 316 317 319 317 318 318 320 322 310 304 305 304 303 303 304 304 304 305 306 307 308 308 309 310 311 311 311 311 310 308 306 305 303 302 301 299 298 297 296 297 296 296 296 296 295 295 295 296 296 297 297 297 297 297 297 296 296 296 296 296 296 295 295 295 294 294 294 293 293 293 293 294 294 293 293 294 293
322 324 325 325 321 320 319 320 321 319 316 317 317 315 314 315 315 318 317 316 315 317 321 319 318 314 313 314 309 308 308 306 304 303 303 304 303 304 305 305 306 307 307 308 309 310 310 310 309 308 306 304 303 302 301 299 297 296 296 296 296 296 296 295 295 295 295 295 296 296 297 297 297 296 296 296 296 296 296 296 296 295 295 294 294 293 293 293 293 293 293 293 293 293 293 293 293
320 323 324 323 321 321 320 318 319 319 318 318 315 313 313 315 315 315 315 315 314 315 318 318 315 309 309 315 314 312 310 306 305 304 304 304 304 305 305 305 305 305 305 305 306 307 308 309 309 307 306 304 302 302 301 299 297 296 296 296 296 296 295 295 295 295 295 295 295 296 296 297 297 296 296 296 296 296 295 295 295 295 294 294 294 293 293 293 293 293 293 293 293 293 293 293 293
322 322 323 322 320 322 321 317 318 318 318 315 313 314 315 315 313 313 314 314 313 314 315 316 314 311 314 319 316 311 309 307 305 304 304 305 305 305 305 304 304 304 304 305 305 305 307 307 307 307 305 303 302 301 301 299 296 296 296 296 296 296 296 296 295 295 295 295 295 295 296 296 296 296 296 296 296 295 295 295 294 294 294 294 294 293 293 293 293 293 293 293 293 293 292 293 293
323 322 322 322 320 320 319 316 316 316 317 314 313 316 315 314 313 313 314 313 314 314 315 315 313 315 317 317 314 310 310 308 305 305 304 304 304 304 304 304 303 303 304 304 304 304 305 305 306 306 304 302 301 301 300 298 296 296 296 296 296 296 296 295 295 295 295 294 295 295 295 296 296 296 296 295 295 295 294 294 294 294 294 294 294 293 293 293 293 293 293 293 293 292 292 292 292
321 320 321 320 318 317 316 315 315 314 316 316 314 316 316 313 313 314 315 316 316 316 316 315 312 314 315 314 312 309 309 308 306 305 305 304 304 303 304 304 303 304 304 303 304 304 304 304 305 305 304 302 301 301 300 298 296 296 296 296 296 296 296 295 295 295 294 294 294 295 295 295 295 295 296 295 295 295 294 294 294 294 294 294 293 293 293 292 293 293 292 293 292 292 292 292 292
315 316 317 318 316 316 315 314 314 313 315 317 314 314 315 313 313 315 314 316 316 315 317 316 315 314 312 312 311 309 308 307 305 305 305 304 304 304 304 304 304 304 304 304 304 304 303 304 304 304 304 302 301 300 299 297 296 296 296 296 296 296 296 295 295 295 294 294 294 295 295 294 294 294 295 295 295 295 295 294 294 294 294 294 293 293 293 292 292 292 292 292 292 292 292 292 292
314 314 315 317 316 315 315 314 315 314 315 317 314 313 316 315 315 315 313 314 314 314 316 315 315 314 311 311 310 309 308 306 305 305 305 306 306 306 305 306 306 304 305 305 304 303 303 304 303 303 303 302 301 300 299 298 296 296 296 296 296 296 296 295 295 295 294 294 294 295 294 294 293 294 294 294 294 295 295 295 295 294 294 294 294 293 293 293 292 292 292 292 292 292 292 292 292
315 315 314 315 315 316 315 315 316 314 315 316 314 313 316 316 315 314 313 313 312 314 316 314 314 313 311 310 309 309 308 306 306 305 306 307 307 307 306 307 306 306 305 304 303 304 304 303 303 302 302 302 301 300 299 298 297 296 295 296 296 296 295 295 295 295 294 294 294 294 294 293 293 293 293 294 294 294 295 295 295 294 294 294 294 293 293 293 293 292 292 292 292 292 292 292 292
317 313 315 316 316 317 315 314 315 313 314 316 314 313 314 314 314 313 313 313 313 315 315 314 313 313 311 310 310 310 308 306 306 306 307 307 307 307 307 307 306 306 305 304 305 305 304 303 302 302 302 302 301 300 300 299 298 296 295 295 296 296 295 295 295 294 294 294 294 294 294 293 292 292 293 293 294 294 294 294 294 295 295 294 294 293 293 293 292 292 292 292 292 292 292 292 292
323 314 317 320 317 316 315 313 314 314 313 312 313 316 314 313 314 313 313 313 314 315 315 315 314 313 312 311 310 309 308 306 304 305 306 307 308 307 307 307 307 307 306 306 306 304 303 303 302 302 302 301 301 301 300 299 299 297 295 295 295 295 295 295 295 294 294 293 294 294 295 294 292 292 292 293 293 294 294 294 294 294 295 294 294 293 293 293 292 292 292 292 292 292 292 292 292
325 315 316 320 317 316 315 315 317 315 313 311 312 315 315 314 316 315 313 313 314 315 315 314 314 313 312 311 310 309 309 307 306 305 305 306 307 308 308 308 307 308 307 307 306 305 304 303 302 302 302 302 301 301 300 300 299 298 296 295 295 295 294 294 294 294 293 293 293 294 295 294 293 292 292 292 293 293 294 294 294 294 295 294 294 293 293 292 292 292 292 292 292 292 292 291 291
320 316 316 319 317 314 315 317 318 314 313 313 313 313 313 314 314 315 314 313 314 314 314 314 313 312 311 310 309 309 308 308 309 307 305 306 307 308 308 308 308 308 307 307 306 306 305 304 303 302 302 302 301 300 300 300 299 298 296 295 295 294 294 294 294 293 293 293 293 293 295 295 293 292 292 292 292 293 293 293 294 294 294 294 293 293 292 292 292 292 292 292 291 291 291 291 291
316 317 317 318 317 315 315 315 315 314 313 313 313 312 312 312 312 312 312 312 313 313 312 313 312 311 310 310 310 310 310 309 309 307 306 307 307 307 307 307 308 307 307 307 306 306 305 304 302 302 301 301 301 300 300 299 299 298 296 295 295 295 294 294 294 294 294 293 293 293 294 294 293 292 291 292 292 292 292 292 293 294 294 294 293 293 292 292 292 292 292 292 291 291 291 291 291
314 315 315 316 315 313 314 313 312 313 312 312 312 311 311 311 311 311 311 311 312 312 311 310 310 310 310 310 310 310 310 311 310 308 308 308 308 308 307 307 307 307 307 306 305 305 304 303 302 301 301 301 300 299 299 299 298 297 296 295 295 295 295 295 296 296 296 295 293 293 293 294 293 292 291 291 292 292 292 292 293 293 294 294 293 293 293 293 293 292 292 291 291 291 291 290 290
312 313 314 314 313 312 312 311 311 311 310 311 313 311 311 311 311 311 311 311 312 312 311 311 311 311 311 311 311 311 311 311 310 309 308 308 308 308 307 307 307 306 306 305 305 305 304 304 303 301 301 300 300 299 299 298 298 297 296 296 296 295 296 296 296 297 296 296 295 293 292 293 293 292 291 291 291 291 291 292 292 293 293 293 293 293 293 292 292 292 292 291 291 291 290 290 290
313 314 314 314 313 312 311 311 311 311 310 311 313 312 311 311 311 311 311 311 311 312 312 312 312 311 312 311 311 311 311 311 311 310 309 307 307 308 307 307 307 306 306 306 305 305 305 304 303 302 301 300 300 300 299 299 298 298 297 297 296 296 296 296 296 297 296 296 295 294 292 292 292 292 291 291 291 291 291 292 292 293 293 293 292 292 292 292 292 292 292 291 291 290 290 289 289
314 314 314 314 313 312 312 312 312 311 312 315 316 313 310 311 312 311 312 311 312 312 312 312 312 312 312 312 312 311 311 312 311 311 310 307 306 306 307 306 306 307 306 306 306 305 304 303 302 302 301 300 300 300 299 299 299 298 298 297 296 296 296 296 296 296 296 296 296 295 294 292 292 291 291 290 291 291 291 292 292 293 293 293 292 291 291 291 291 291 291 291 291 290 289 289 289
314 315 314 314 312 312 313 313 315 312 312 317 316 312 311 311 311 311 311 311 311 312 312 313 313 312 312 312 313 312 312 312 311 312 311 308 306 305 304 305 305 306 306 305 305 304 303 302 302 301 301 300 300 299 299 299 298 298 297 297 296 296 295 296 295 295 296 296 296 296 295 293 292 291 291 291 290 290 291 291 292 292 293 293 293 292 292 292 292 292 291 291 291 290 289 288 288
314 314 313 313 313 312 313 314 316 314 314 317 315 312 314 314 313 312 311 311 311 311 311 312 312 312 312 312 312 312 312 312 311 312 311 311 311 305 302 305 305 304 305 305 304 304 303 303 302 301 300 300 299 299 299 298 298 297 296 296 295 295 295 295 294 294 295 295 295 295 295 294 293 291 291 291 291 290 290 291 291 292 292 292 292 293 293 293 292 292 292 291 291 291 290 288 288
313 315 314 313 313 313 313 314 314 315 320 319 315 315 317 318 317 315 313 312 311 311 311 311 311 311 311 312 311 311 311 311 311 311 310 312 312 307 302 303 304 303 305 305 305 305 304 303 301 301 300 299 299 299 299 298 297 297 296 295 295 294 294 294 295 295 294 295 295 294 294 294 294 292 291 291 291 290 290 290 291 292 292 292 292 292 292 292 292 291 291 291 290 290 290 289 288
313 320 319 313 312 314 315 315 314 319 324 317 314 318 318 317 318 318 316 315 314 314 313 312 311 311 312 312 312 312 312 311 311 311 311 311 311 310 305 302 302 304 305 305 305 304 303 302 301 300 299 299 299 299 298 298 297 297 296 296 296 295 295 295 295 295 295 294 294 294 294 294 294 293 292 290 290 290 290 290 290 291 291 291 291 291 291 291 291 291 291 290 289 289 289 289 288
316 322 324 318 316 317 316 314 315 320 321 316 316 319 319 317 317 317 317 316 316 315 314 314 312 312 313 313 313 313 312 312 312 313 312 311 311 311 307 303 303 304 305 305 304 303 303 302 301 300 299 299 299 298 298 298 297 297 296 296 296 296 296 296 295 295 294 294 293 293 293 293 293 293 292 291 290 290 290 290 290 290 290 290 291 291 291 290 290 290 290 289 289 288 289 289 288
318 318 319 319 319 318 317 317 318 317 318 318 316 317 320 319 316 316 315 314 317 316 315 315 313 314 314 314 315 314 312 312 312 312 311 311 310 307 305 304 305 305 304 304 304 303 302 301 300 299 299 299 298 298 298 298 298 297 297 296 296 296 296 296 295 294 294 293 293 293 293 293 293 293 293 292 291 290 290 289 289 289 289 290 290 290 290 289 290 290 289 289 289 288 288 288 288
317 317 318 319 321 320 320 321 319 318 320 319 318 317 319 319 317 319 316 315 319 317 315 314 313 315 316 315 314 313 313 313 312 311 311 311 307 305 306 305 304 304 304 304 304 303 302 301 300 299 299 299 298 298 298 298 297 297 297 296 296 296 296 295 295 294 294 293 293 292 292 292 293 293 292 292 291 291 290 289 289 289 289 289 289 289 289 289 289 289 289 290 289 289 288 288 288
315 319 324 324 324 323 324 325 320 319 321 320 321 319 317 318 319 320 320 319 319 316 315 317 316 316 317 316 315 313 313 312 312 312 312 311 305 302 304 304 303 304 304 303 303 302 301 300 299 299 298 298 298 298 298 297 297 297 297 297 296 296 295 295 294 294 293 293 292 292 292 292 292 292 292 292 292 291 291 290 289 289 289 289 289 289 289 289 289 289 289 289 289 288 288 288 287
315 323 326 323 324 323 323 325 321 320 322 320 321 318 316 318 317 317 319 319 318 316 317 322 323 320 321 324 320 313 312 311 311 312 313 315 312 308 305 302 302 303 302 302 302 301 300 299 299 298 297 298 298 297 297 297 297 297 297 297 296 296 296 295 294 294 293 293 292 292 291 291 291 292 292 292 291 291 291 290 289 289 288 288 288 288 288 288 288 288 288 288 288 288 287 287 287
315 322 321 319 323 321 321 323 321 321 321 317 317 316 315 317 316 317 318 317 318 319 317 320 324 324 325 328 322 315 314 313 312 312 314 319 321 320 313 303 300 301 300 300 300 300 300 299 298 298 297 297 297 297 297 297 297 297 297 296 296 296 296 295 295 294 294 293 293 292 291 291 291 291 291 291 292 291 291 291 290 289 288 288 288 288 288 288 288 288 288 288 288 287 287 287 287
315 318 319 319 321 320 322 325 322 321 320 316 314 317 317 317 320 320 316 314 317 318 317 318 319 320 320 320 317 314 314 312 311 313 316 319 322 325 316 302 298 300 300 299 300 299 299 298 298 298 297 297 297 296 296 296 296 297 297 296 296 296 295 295 295 294 294 293 293 292 292 292 291 291 291 292 292 291 291 291 291 290 289 288 288 288 288 287 287 287 287 287 287 287 287 287 287
314 316 320 319 321 324 326 327 323 321 321 316 312 317 322 320 320 322 317 315 319 319 318 318 316 315 314 314 313 313 312 311 311 313 315 317 322 323 312 300 299 300 299 299 299 299 299 298 298 298 297 297 297 296 296 296 296 296 296 296 296 296 295 295 295 295 294 294 293 293 292 292 292 292 291 291 291 291 291 291 291 290 289 288 288 287 287 287 287 287 287 287 287 287 286 286 286
314 318 320 316 319 323 322 322 323 320 320 317 314 320 323 318 316 319 319 318 320 319 316 314 314 314 313 315 316 316 314 314 314 314 314 315 319 317 305 299 301 300 299 299 299 299 299 298 298 298 298 297 297 297 296 296 296 296 296 296 296 295 295 295 294 294 294 294 294 293 293 292 292 292 291 291 291 290 291 290 290 290 289 288 288 287 287 287 286 286 286 286 286 286 286 285 285
315 316 319 316 317 318 316 321 322 318 318 318 318 320 319 318 318 316 315 316 315 317 316 314 316 316 317 318 318 318 318 317 316 315 313 313 316 313 302 299 302 301 300 299 298 299 299 298 298 298 297 297 297 297 297 296 296 295 295 296 296 296 295 295 295 295 294 294 293 293 293 293 292 292 292 291 290 290 290 290 290 290 289 289 288 287 287 286 286 286 285 286 286 285 285 285 285
318 319 317 314 316 317 317 320 321 318 318 318 317 319 317 318 319 315 317 321 319 318 317 316 317 317 317 317 317 317 316 315 314 313 312 312 317 316 304 300 303 302 301 300 299 299 298 298 299 298 297 298 297 297 297 296 296 295 295 295 296 296 296 296 296 295 294 293 293 293 293 292 292 292 291 291 291 290 290 289 289 289 289 288 288 287 286 286 285 285 285 285 285 285 285 284 284
317 319 315 315 318 319 318 320 320 318 319 318 318 319 316 317 319 317 319 323 322 318 316 316 317 316 316 317 316 316 314 314 313 312 312 311 315 317 306 301 303 303 302 301 300 299 298 298 298 298 298 298 298 298 297 296 296 296 296 295 295 295 295 295 295 295 294 293 293 293 293 292 292 292 291 291 290 290 289 289 289 288 288 288 287 287 286 285 285 285 284 284 284 284 284 284 283
312 312 312 314 316 318 319 320 320 318 319 319 319 320 318 319 325 323 318 320 321 318 318 321 320 316 316 315 315 315 314 315 314 312 313 312 312 313 305 302 303 303 302 302 301 300 299 298 298 298 298 298 298 297 297 297 297 296 296 296 295 295 295 295 295 294 294 293 293 293 292 292 292 291 291 291 290 290 289 289 288 288 287 287 287 286 286 285 285 284 284 284 284 284 284 283 283
314 313 313 313 313 317 318 316 317 318 317 319 320 321 319 320 325 324 319 320 320 318 321 324 320 316 314 313 314 315 315 316 315 313 313 312 311 310 307 304 304 303 303 302 301 301 300 299 298 298 297 297 297 297 297 297 297 297 296 296 296 296 295 295 295 294 294 294 293 293 292 292 292 291 291 291 290 290 289 289 288 287 287 287 286 286 285 285 284 284 284 284 284 283 283 283 282
316 314 315 314 314 317 317 317 318 318 317 318 320 321 320 318 319 317 316 318 316 316 320 319 317 315 314 315 316 316 315 314 312 311 312 311 311 311 307 305 303 302 303 302 301 301 299 299 299 298 297 297 297 297 297 298 297 297 296 296 296 295 295 295 294 294 294 293 293 293 292 292 291 291 291 291 290 290 289 289 288 287 287 286 286 285 285 285 284 283 283 283 283 283 283 282 281
Wind_Speed
1 1 1 1 2 1 2 4 2 3 2 1 3 1 4 5 2 2 3 2 1 3 3 1 2 5 3 3 7 7 5 7 6 5 4 3 8 24 24 14 23 29 29 28 26 24 22 21 18 17 15 15 15 15 15 14 14 13 12 12 12 11 11 10 10 11 11 10 10 10 9 10 9 9 8 7 7 6 7 7 7 8 9 9 8 7 8 7 6 6 5 3 4 3 3 3 3
1 1 2 1 3 2 1 3 2 4 4 3 4 3 4 3 1 5 8 6 4 4 1 3 3 3 3 2 3 3 3 4 4 4 2 6 12 21 21 17 26 28 29 29 27 25 23 22 19 18 16 16 15 15 15 13 14 13 13 12 11 11 11 10 10 10 9 8 8 8 7 7 7 7 7 6 6 6 6 6 6 6 6 7 6 6 5 4 4 3 2 1 1 2 2 2 2
1 0 2 1 2 3 1 4 1 1 2 3 5 5 3 2 6 8 9 8 7 3 2 2 2 2 3 2 1 2 4 3 3 2 1 10 11 20 24 20 25 26 28 28 26 26 24 24 21 18 16 17 16 15 14 14 14 14 15 13 12 12 11 11 10 9 8 8 7 7 7 6 6 6 7 5 5 5 6 6 6 6 6 6 5 3 3 2 3 3 3 3 3 4 3 3 3
2 1 3 1 1 4 4 3 1 4 1 3 4 6 3 4 8 7 7 7 6 1 1 0 1 1 3 2 2 1 4 4 5 6 3 13 15 23 29 22 25 25 26 27 26 26 24 24 21 18 17 18 17 15 15 14 15 15 16 15 13 13 12 13 11 10 9 9 9 8 7 6 6 6 7 5 5 6 6 6 6 5 5 5 5 4 4 4 5 5 4 4 5 4 4 5 5
2 2 3 3 2 1 3 2 2 3 4 4 2 6 5 7 7 6 6 5 3 1 1 1 1 2 1 3 2 1 5 2 5 9 6 14 18 25 31 25 26 25 25 26 26 26 25 24 21 19 18 18 18 16 16 15 16 16 17 16 15 14 14 14 13 12 10 10 10 9 8 8 7 7 7 7 7 7 8 8 8 7 6 5 5 4 3 3 4 4 4 5 6 5 5 5 6
1 2 4 5 2 1 3 1 2 2 5 5 3 7 7 6 6 6 5 6 3 3 3 1 2 1 1 3 2 3 5 2 3 10 8 11 19 27 31 27 27 25 25 25 26 26 24 24 21 20 18 18 18 16 17 17 17 18 18 18 16 15 15 15 14 13 12 11 11 10 10 9 9 8 9 8 8 8 8 8 8 8 7 6 6 5 4 3 3 3 3 4 4 4 4 4 5
2 1 4 4 2 2 3 3 4 4 5 6 5 7 9 7 4 4 2 3 2 3 3 4 1 2 3 2 2 4 5 3 3 6 8 12 22 29 30 28 27 25 24 25 25 25 24 24 21 19 19 19 19 17 18 17 17 18 18 18 15 14 14 13 13 13 13 12 12 11 10 10 10 9 9 8 8 7 7 7 8 8 8 7 7 5 4 4 3 2 2 2 2 2 2 2 3
3 1 1 4 1 2 3 2 4 4 4 5 5 7 9 6 4 4 4 2 2 3 2 3 1 1 5 1 2 4 4 8 3 3 7 15 25 31 31 30 28 26 25 25 24 23 24 23 19 18 19 19 18 17 17 16 16 18 17 16 15 13 13 12 13 13 12 12 12 11 10 10 10 9 9 8 7 7 7 6 6 7 7 7 6 5 4 4 3 2 2 2 2 2 1 1 1
4 2 0 2 2 1 0 3 4 4 5 6 6 7 9 5 5 5 5 4 3 2 4 4 4 3 4 1 4 4 3 9 7 5 9 19 28 31 32 31 30 28 26 25 24 23 24 23 19 17 18 18 17 17 16 16 17 17 17 15 15 15 14 14 15 14 14 13 13 12 11 11 10 9 8 7 7 6 6 6 6 6 6 6 5 5 4 4 4 4 4 4 4 4 4 3 3
3 3 1 1 2 2 3 3 3 3 6 6 7 9 9 4 7 5 6 6 4 1 5 3 4 4 2 2 5 3 3 9 10 8 12 24 28 30 32 31 30 29 28 26 24 23 24 23 20 18 18 17 17 17 16 17 17 17 17 16 16 16 15 15 16 16 15 15 14 13 12 11 11 10 9 8 7 7 7 7 7 7 7 6 6 6 6 6 6 6 6 6 5 5 5 4 4
2 4 2 2 2 2 4 4 4 5 6 5 7 10 8 5 6 3 3 5 5 3 3 3 2 4 1 3 5 2 3 8 12 11 18 27 29 30 31 30 29 28 28 27 25 24 24 23 22 20 19 18 17 17 17 17 18 18 17 17 17 17 17 16 16 16 15 15 14 14 13 12 11 10 9 9 8 8 8 8 8 8 8 8 7 7 7 7 7 7 6 6 6 5 5 4 4
2 3 3 3 2 3 4 3 5 6 7 5 6 7 3 8 6 4 6 5 4 3 5 4 3 4 3 5 4 3 4 11 14 12 21 29 29 29 29 29 28 27 26 26 25 24 24 24 23 22 20 20 19 18 18 18 19 19 18 18 18 18 18 17 17 16 15 15 15 14 14 13 12 11 11 10 10 10 10 9 9 9 9 8 8 8 7 7 7 6 6 6 6 6 5 4 4
3 1 4 2 3 2 2 2 5 6 7 4 5 4 3 8 6 8 7 5 3 2 8 8 3 2 3 4 4 4 5 13 16 15 25 30 29 29 28 28 27 26 25 25 25 25 25 25 24 23 22 21 20 20 20 20 20 19 19 19 19 19 19 18 18 17 16 16 16 16 15 14 14 13 12 12 12 11 11 10 10 10 9 9 9 8 7 7 6 6 6 5 6 5 5 5 4
2 3 4 1 1 1 3 2 4 3 5 6 4 2 3 3 5 6 7 4 7 6 6 6 6 1 3 3 4 5 5 15 18 20 27 29 29 28 27 27 26 26 25 25 24 25 26 26 26 24 23 23 22 22 22 21 21 20 20 20 20 20 19 19 18 18 18 18 18 17 17 16 15 15 14 13 13 12 12 11 10 10 10 9 9 8 7 6 6 5 5 5 5 5 5 5 5
2 2 4 1 2 2 3 3 3 3 4 6 3 0 3 4 3 4 6 7 9 6 1 2 6 2 4 3 4 5 4 17 22 24 29 28 27 26 26 26 26 26 25 25 24 25 27 27 27 25 25 24 24 24 22 21 21 21 20 20 20 20 20 20 19 19 20 20 19 18 18 17 17 16 15 14 13 13 12 12 11 11 10 10 9 8 7 6 5 5 5 4 4 4 4 4 5
3 3 4 1 2 2 3 4 2 2 5 6 4 1 2 7 2 2 5 5 4 3 1 3 5 2 4 6 6 7 4 19 24 25 28 26 25 24 24 25 26 26 26 26 26 26 27 28 28 27 26 25 25 24 22 21 21 20 21 21 21 20 21 21 21 21 21 20 19 18 18 17 17 16 15 14 13 13 12 12 12 11 10 10 9 7 6 6 5 5 5 4 4 4 4 4 4
3 4 3 1 2 3 4 4 4 3 5 6 6 1 3 7 3 2 1 3 3 3 2 5 3 1 4 4 5 6 8 24 25 26 26 23 23 22 22 25 26 27 28 28 28 28 28 29 29 29 28 27 26 24 23 22 21 21 21 21 21 21 22 22 23 22 21 20 19 18 18 17 16 15 14 13 13 12 12 11 11 11 10 9 8 7 6 6 5 5 5 5 4 4 5 4 5
2 3 2 3 3 4 5 7 6 3 4 5 5 1 5 5 5 1 2 1 4 3 4 5 5 4 3 3 4 3 18 26 26 28 25 22 22 21 22 26 29 30 31 31 31 31 31 31 31 30 29 28 27 25 24 23 22 22 22 22 22 22 23 23 23 22 21 21 20 19 18 17 16 15 15 14 13 12 12 11 11 10 9 8 8 7 6 6 5 5 5 4 4 5 5 5 5
2 3 2 4 6 5 6 7 5 3 4 6 7 3 5 6 4 1 3 7 4 4 6 4 7 9 4 1 3 13 22 26 27 28 25 24 25 24 24 26 30 31 34 36 37 35 34 33 33 32 31 30 28 26 25 24 24 24 23 23 23 23 24 24 23 22 22 22 21 20 19 18 17 16 15 14 14 13 13 12 12 11 10 9 9 8 7 7 6 6 5 5 5 5 4 5 5
2 3 2 6 7 6 6 7 7 7 4 6 8 2 3 7 4 1 4 8 6 7 7 4 7 12 9 3 7 15 20 23 26 26 25 26 28 28 27 28 32 36 40 41 39 38 37 36 35 35 33 32 30 28 27 26 26 25 24 24 24 25 25 24 23 23 23 22 22 21 20 19 18 18 17 16 15 15 14 13 13 12 11 10 9 8 8 8 7 6 6 6 5 5 5 5 5
2 4 5 7 5 4 8 8 9 8 4 4 5 2 4 7 3 3 3 6 9 9 9 10 11 14 11 6 8 15 17 19 22 23 24 25 27 28 29 33 36 38 38 36 37 40 40 39 38 37 36 34 32 31 30 28 27 27 26 25 25 26 26 26 25 24 24 23 23 22 22 21 20 20 19 18 17 16 16 15 13 12 11 11 9 9 8 8 8 7 7 7 6 6 5 5 5
2 5 7 7 5 4 9 7 7 6 3 3 4 4 6 4 2 5 6 8 11 7 8 12 13 14 10 9 10 12 13 15 18 21 23 25 27 29 31 32 33 31 31 34 39 42 42 42 40 39 38 36 35 34 32 30 29 29 28 28 28 28 28 27 27 26 25 25 24 24 24 23 23 22 22 21 19 18 17 15 14 13 11 11 10 9 9 9 8 8 8 7 7 6 6 6 5
3 5 6 7 7 6 7 4 5 4 2 5 5 4 3 4 8 5 9 14 15 7 7 11 12 12 9 10 11 12 13 14 17 23 27 28 29 32 33 33 34 34 34 37 40 41 42 43 42 41 40 39 37 35 33 32 31 31 30 30 30 30 29 29 29 28 27 26 26 26 26 26 26 25 24 23 21 19 17 16 15 13 12 11 11 10 10 10 9 9 8 7 7 6 6 6 6
4 5 5 6 7 9 9 7 6 4 6 9 3 4 5 9 10 0 6 18 16 10 8 9 9 6 6 9 12 15 16 17 21 30 33 34 37 39 38 36 36 35 34 36 37 39 42 44 44 42 42 41 40 38 36 34 33 32 32 32 32 31 31 31 30 30 29 28 28 28 28 28 28 27 26 24 23 20 18 17 16 14 13 12 12 11 10 10 9 9 8 8 7 7 6 6 5
5 7 5 4 4 8 10 7 7 7 8 6 3 8 11 12 6 4 14 21 15 11 10 10 8 4 7 10 13 14 14 17 21 27 31 33 35 35 34 34 32 31 35 38 37 39 42 44 44 45 44 43 42 40 38 37 35 35 34 34 34 33 33 32 31 31 31 30 30 30 30 30 29 28 27 25 23 21 20 18 17 15 14 13 13 12 10 10 9 8 8 8 7 7 6 6 5
7 8 5 4 6 8 8 7 7 7 6 3 3 12 15 8 3 9 19 20 13 9 10 10 8 7 8 10 12 13 14 16 19 23 28 31 30 29 32 33 32 36 40 40 39 41 42 42 45 47 47 45 43 42 41 39 38 37 37 36 36 35 35 33 32 32 33 33 33 32 32 31 30 29 27 26 24 23 21 19 18 16 15 14 13 12 11 10 9 8 8 7 7 6 6 5 5
5 5 6 6 8 8 6 7 6 4 5 7 7 14 16 4 1 10 17 9 3 4 7 6 7 10 10 9 10 11 13 17 22 23 22 23 25 29 33 33 36 41 39 38 41 42 40 42 45 47 47 46 44 44 43 41 40 40 39 38 38 37 36 35 35 34 34 35 35 34 33 32 30 29 27 26 25 24 22 21 19 18 16 15 13 12 12 10 9 9 7 7 6 5 5 5 4
2 2 6 8 7 9 8 8 6 3 5 8 11 12 14 3 3 13 20 7 1 4 8 6 7 10 10 10 10 9 11 18 22 18 16 21 28 33 34 37 42 42 39 42 43 41 40 43 45 46 47 46 45 45 44 43 42 42 41 41 40 39 38 37 37 37 36 37 37 36 35 33 31 29 28 26 26 24 23 22 20 18 16 15 14 13 12 11 10 8 8 7 5 5 4 3 3
2 2 5 11 7 10 13 9 5 6 4 6 9 5 9 7 10 17 21 11 2 7 11 9 9 10 9 9 9 8 11 15 16 17 23 30 34 37 38 44 45 42 43 44 39 39 42 43 43 44 46 46 47 47 46 45 44 43 43 43 42 41 40 40 40 39 38 38 38 38 35 33 31 29 28 27 26 25 23 22 20 19 17 15 15 13 12 11 9 8 7 6 5 4 3 3 3
5 2 1 9 7 9 10 2 1 4 4 6 7 3 7 11 17 17 15 10 4 6 12 13 9 8 8 8 8 9 11 12 14 23 31 34 36 37 40 44 42 41 41 37 37 41 43 42 42 43 45 47 48 48 47 47 46 45 45 44 43 43 42 42 41 41 40 39 39 39 36 33 32 30 29 28 26 25 24 22 21 19 18 16 15 13 12 10 9 7 6 5 4 4 2 2 2
4 3 1 3 3 8 7 3 1 3 4 7 6 5 8 12 20 17 10 6 6 8 12 13 10 8 8 8 8 11 12 12 19 28 32 35 37 37 39 41 39 40 38 37 41 43 42 42 42 43 45 47 48 48 49 48 47 47 46 46 45 44 44 43 42 42 41 40 40 39 36 34 33 31 30 28 27 26 25 23 22 20 19 17 15 14 12 10 9 7 6 5 4 3 1 1 2
2 2 4 2 2 7 11 6 5 8 5 4 6 6 8 11 19 17 7 3 7 9 12 12 11 11 9 8 8 10 11 12 19 26 31 36 37 37 40 40 38 40 41 42 43 40 40 42 43 44 45 47 49 49 49 48 47 47 46 46 46 45 44 44 43 42 41 41 40 39 37 35 34 32 31 30 28 27 26 24 22 21 19 18 16 15 13 11 10 9 7 5 4 2 1 1 3
2 2 5 5 5 4 8 10 8 10 4 2 7 7 6 8 14 14 6 2 6 8 11 12 13 12 10 9 7 8 10 10 13 20 30 35 37 40 41 40 40 42 44 44 42 40 42 43 43 44 45 48 49 49 48 47 46 46 46 45 45 45 45 44 44 42 42 41 41 40 39 37 35 34 33 31 30 28 27 25 23 22 20 18 17 15 14 12 11 9 8 6 4 2 1 1 3
3 2 4 5 7 5 4 9 7 4 5 6 8 9 11 11 12 13 9 4 6 8 11 13 12 11 9 8 8 9 9 10 11 16 27 33 37 42 41 39 40 41 42 43 43 43 43 43 44 45 45 46 47 47 46 45 44 44 43 43 44 44 45 45 44 43 43 42 42 42 40 38 36 35 34 32 31 29 27 26 24 23 21 19 18 16 15 14 12 10 8 7 5 3 1 2 3
7 6 5 4 5 7 6 8 6 3 5 7 5 9 15 15 13 15 15 10 9 12 12 12 12 11 10 9 10 11 11 13 14 17 25 31 35 38 38 38 39 38 40 40 41 42 42 41 42 43 44 44 44 44 43 42 41 40 40 40 41 42 43 44 44 44 44 44 43 42 41 39 37 36 35 34 32 30 28 27 26 24 22 20 19 18 16 15 14 11 9 7 6 3 1 2 3
11 7 6 6 6 7 8 11 10 5 8 7 7 14 16 15 14 15 18 13 11 17 15 12 12 12 12 12 12 13 14 16 18 21 24 27 31 34 34 36 37 37 38 38 38 39 40 40 40 42 43 43 42 40 39 39 38 38 37 37 39 41 43 44 44 45 45 45 44 43 42 40 39 38 36 35 33 31 30 29 27 25 23 21 20 19 18 16 14 12 10 8 6 4 1 1 4
6 3 6 8 8 10 10 13 12 2 4 8 9 17 18 14 14 14 18 15 12 17 18 16 14 13 13 14 15 15 16 17 19 22 23 24 28 29 30 32 33 33 34 35 37 39 42 42 43 44 44 43 43 43 42 43 42 40 39 40 42 43 44 44 45 46 46 46 45 44 43 41 40 39 38 37 34 33 31 30 28 26 24 23 21 19 17 16 14 12 11 9 6 4 2 1 4
5 5 8 7 7 12 12 13 14 2 2 7 8 16 20 15 14 13 14 16 16 17 18 20 17 14 13 14 18 18 15 15 15 19 20 20 23 24 26 28 31 33 35 38 40 43 44 44 45 45 44 44 46 47 47 47 47 47 45 45 46 44 45 46 46 47 46 45 45 44 43 42 42 40 39 38 36 34 33 32 30 28 26 24 21 19 18 17 16 14 12 10 8 5 3 1 3
7 5 6 7 7 11 10 10 13 3 2 7 8 15 18 13 13 13 14 17 18 17 17 19 19 16 14 15 17 18 17 16 15 16 17 16 17 21 23 26 32 35 36 39 42 43 43 44 45 44 43 46 48 48 48 48 48 47 45 44 43 40 41 44 44 44 44 44 44 44 43 43 42 41 40 39 38 36 35 34 31 29 28 25 24 22 21 19 17 15 13 11 10 7 5 3 2
6 6 6 8 7 8 8 6 7 3 3 7 9 14 15 11 12 13 16 19 18 17 16 16 18 17 17 19 17 16 18 18 17 16 16 12 12 16 21 26 31 33 33 36 39 40 41 43 45 44 45 47 47 47 47 46 43 42 39 36 36 35 35 38 37 37 40 42 43 44 45 44 43 42 41 40 39 37 35 34 33 31 29 27 26 25 23 22 19 17 15 13 12 10 8 5 3
8 9 7 10 12 12 10 4 6 5 5 5 7 14 13 9 11 11 12 15 15 15 15 14 18 19 17 18 17 16 17 18 17 18 17 11 8 14 21 26 28 30 33 37 40 41 43 45 46 45 45 46 46 47 46 43 39 38 35 29 28 29 28 30 33 34 38 42 44 46 46 45 44 42 42 41 40 38 36 35 33 32 30 28 27 26 24 22 20 19 17 15 13 11 10 7 6
9 7 12 18 17 13 11 7 6 5 5 4 3 8 10 5 10 10 8 9 11 11 12 15 18 20 16 13 15 15 15 16 16 17 17 12 8 11 18 24 26 29 35 38 40 43 44 44 44 44 43 44 44 45 45 43 41 41 39 34 31 30 28 31 39 42 43 45 46 46 46 45 45 44 43 42 40 39 37 36 35 33 31 30 29 26 24 23 21 20 18 16 14 12 11 10 9
9 6 13 17 13 10 11 8 3 2 4 4 2 1 10 6 6 10 9 8 10 10 11 15 17 17 13 9 11 14 13 12 12 14 15 14 11 10 14 20 26 30 35 36 37 39 40 39 40 41 41 42 43 44 45 44 43 43 43 42 40 38 36 39 45 45 44 45 44 43 44 45 45 44 43 42 41 40 38 37 36 34 32 31 29 27 26 24 23 21 19 17 15 13 12 11 11
8 4 8 10 9 10 9 6 5 4 3 3 1 4 6 13 6 9 11 10 10 11 13 16 17 15 11 9 10 13 14 11 10 12 14 15 12 9 11 18 26 31 32 31 32 35 37 37 38 40 41 41 42 44 46 47 46 45 45 43 41 42 42 42 42 39 38 41 41 41 43 44 45 45 44 43 42 41 40 39 37 35 33 31 30 29 27 26 24 22 20 18 17 15 13 11 12
7 1 4 6 6 6 5 5 5 1 3 3 3 5 2 13 7 3 4 7 8 13 16 18 17 12 10 10 12 13 13 12 11 12 14 13 9 9 13 18 24 28 28 29 33 35 36 36 37 39 40 41 42 44 47 48 47 46 45 43 41 42 42 38 35 35 35 37 39 41 41 43 44 44 44 43 43 42 41 40 38 36 35 33 31 30 28 26 25 24 22 21 19 17 14 12 12
4 6 5 4 4 3 4 4 4 2 4 5 7 6 3 12 8 4 3 3 8 12 14 14 12 9 10 10 12 12 11 11 12 10 10 9 9 11 16 18 20 25 27 29 32 33 34 36 37 39 41 41 43 45 47 48 47 45 45 45 43 41 38 34 31 33 35 35 38 40 41 42 44 45 45 44 43 43 42 41 40 38 37 35 33 31 30 28 27 25 23 22 20 18 17 14 12
3 6 5 6 4 4 4 1 3 2 7 6 12 13 7 8 6 4 3 4 6 8 8 8 8 9 11 10 10 11 10 10 9 7 7 7 8 9 10 12 15 19 23 26 28 31 34 36 38 40 41 41 43 45 47 48 48 47 46 46 45 41 38 34 33 33 35 36 38 40 41 42 43 45 45 45 45 44 43 42 41 39 38 36 34 33 32 30 28 27 24 22 20 19 18 16 14
4 3 4 3 4 4 4 4 4 1 8 6 11 13 10 8 6 2 5 6 5 6 7 8 9 10 10 9 9 9 8 9 7 7 8 7 7 6 5 8 12 14 19 23 26 29 32 34 36 37 39 41 43 44 46 47 47 48 47 46 45 43 40 39 38 38 38 39 39 39 38 39 41 43 44 46 46 46 45 43 42 40 39 38 37 35 33 31 29 28 26 24 23 21 19 18 17
4 3 4 1 4 3 2 3 1 4 8 5 6 7 6 10 8 4 9 10 8 9 8 9 9 9 9 9 9 8 8 9 6 6 6 7 6 6 5 7 10 13 17 20 24 27 30 32 34 36 38 40 40 42 45 46 47 49 48 46 45 43 41 42 42 40 40 41 40 38 39 40 41 43 45 48 49 49 48 46 44 43 42 40 38 36 34 32 31 29 28 27 25 23 22 20 19
7 5 6 5 3 3 4 3 2 5 7 3 3 5 4 8 5 8 14 14 11 9 8 9 9 9 10 9 10 10 10 10 6 5 6 6 6 6 6 7 10 13 16 19 22 26 29 30 34 36 36 38 39 42 44 45 48 50 48 46 45 42 42 43 42 41 40 40 41 41 43 43 43 46 49 51 51 50 49 48 47 45 44 42 40 37 35 34 32 31 29 28 27 25 23 21 19
7 6 5 5 6 5 4 4 6 7 5 3 1 4 4 3 3 8 11 9 6 5 6 7 7 6 7 8 9 10 11 11 8 6 6 6 7 7 7 8 11 14 16 19 23 26 29 31 35 37 37 39 41 42 43 46 48 48 46 44 43 42 42 42 41 41 40 41 42 42 43 44 44 46 47 48 48 49 50 49 48 47 45 43 41 39 37 36 34 32 30 29 28 26 24 22 21
4 4 4 4 5 5 4 6 6 4 2 2 3 4 5 4 6 7 8 8 7 6 5 5 6 6 6 7 8 8 9 9 9 9 8 7 6 5 6 8 10 13 16 21 25 29 32 34 35 37 38 40 42 42 44 46 45 43 44 44 44 42 41 40 41 42 42 42 42 42 43 44 44 44 44 44 44 47 49 49 48 48 46 45 43 41 40 38 36 34 33 31 29 27 26 25 23
2 3 3 5 3 6 5 7 2 1 4 5 4 6 5 4 8 7 5 8 9 8 7 5 6 6 6 7 7 7 8 8 9 9 9 7 5 5 7 9 11 14 18 22 26 30 32 33 35 36 36 36 40 43 45 44 42 41 44 46 45 44 44 45 46 45 44 42 41 42 43 43 43 44 43 43 43 44 46 48 48 48 47 46 45 43 41 39 38 36 35 34 32 30 28 27 25
5 3 5 2 2 2 2 3 2 2 8 6 5 12 8 3 7 5 6 6 6 6 5 5 6 5 5 7 7 8 9 8 9 9 8 7 5 5 6 9 13 16 19 21 24 26 27 29 32 35 36 39 43 45 44 42 42 42 43 46 47 48 49 49 48 46 43 41 41 43 43 43 44 44 43 42 42 43 45 46 47 48 48 47 46 45 43 41 39 38 37 35 33 32 30 28 27
5 3 2 2 1 3 1 2 3 6 10 6 7 14 11 6 8 5 5 7 8 6 2 3 8 6 5 8 9 10 9 8 9 9 8 7 5 5 6 9 13 15 18 20 21 23 26 29 30 32 36 40 41 41 42 42 43 43 44 45 46 47 47 47 46 44 41 42 43 44 44 44 44 43 43 42 43 43 44 45 46 46 46 46 46 45 44 42 41 40 38 36 34 33 31 30 28
2 0 1 2 4 3 3 3 2 5 10 8 8 11 8 6 6 5 8 10 8 7 4 5 8 7 6 7 8 9 10 10 10 10 11 12 10 6 5 6 9 12 16 19 21 24 28 29 29 31 34 35 36 38 41 42 44 45 45 43 44 46 47 47 46 43 42 43 45 44 44 44 43 43 43 43 43 44 45 46 46 45 45 45 45 45 45 44 42 41 40 38 36 35 33 31 29
1 2 3 3 3 1 1 2 2 3 7 7 7 8 7 6 4 6 9 9 8 8 6 7 8 7 8 8 8 8 8 8 9 9 10 12 14 13 14 16 11 9 14 18 22 26 28 29 31 33 33 33 35 38 41 43 45 45 45 45 45 47 48 46 44 43 43 43 43 43 43 43 42 43 44 44 44 45 45 46 45 45 45 45 45 46 45 44 43 42 40 39 37 36 34 32 30
3 4 4 5 5 3 5 6 4 4 6 7 8 9 7 6 7 8 7 7 9 9 7 8 8 8 9 8 8 7 6 7 9 10 10 10 10 13 20 25 19 12 14 19 21 24 26 29 32 32 32 34 36 37 41 44 43 42 44 45 45 44 44 43 42 42 42 42 42 43 43 42 42 44 45 45 45 45 45 45 45 45 45 45 45 46 46 45 44 43 41 40 39 38 35 33 32
Wind_Direction
50 38 329 325 329 347 20 54 69 320 73 290 276 222 263 236 236 257 262 260 154 244 207 122 164 152 128 171 188 187 170 173 170 147 210 223 145 161 165 170 169 168 169 172 175 176 178 176 176 173 172 174 176 178 171 168 170 164 161 162 160 158 157 154 151 147 145 142 137 137 136 136 138 136 135 139 132 124 123 119 115 104 98 97 96 100 101 104 108 111 111 105 93 74 57 48 34
56 6 354 354 11 52 249 67 97 325 37 311 281 185 259 296 292 230 221 202 206 245 118 113 126 106 82 76 134 146 203 213 178 160 217 144 144 168 170 171 171 171 171 173 178 180 179 173 173 174 176 178 181 187 178 175 178 172 170 169 168 166 160 157 157 155 149 145 140 143 146 136 134 136 147 159 134 114 110 113 122 117 116 111 101 110 113 113 126 133 161 216 321 335 327 335 333
70 105 5 35 30 45 64 41 100 28 47 272 278 237 266 290 235 234 221 210 230 253 67 142 146 96 86 27 107 152 230 262 176 159 157 159 164 178 175 174 175 175 176 176 179 182 181 175 176 176 178 179 180 184 178 180 182 178 177 174 176 176 171 171 168 165 160 165 164 155 155 145 139 150 172 172 132 126 119 123 136 122 123 128 122 149 173 217 234 241 244 266 295 304 296 302 309
64 74 10 80 61 28 65 36 147 125 195 241 272 263 241 220 238 253 244 236 252 288 41 147 176 191 126 231 238 151 246 268 198 171 160 188 187 177 174 174 177 178 179 180 182 184 185 183 182 177 177 179 179 180 179 183 181 179 179 177 181 181 183 185 182 179 176 179 179 173 171 168 158 159 173 155 136 166 173 170 173 149 138 151 159 179 198 220 231 242 250 268 283 290 292 296 298
58 61 21 65 95 32 95 65 112 124 217 198 229 268 237 221 246 260 267 277 265 215 255 85 264 264 132 227 200 185 228 243 207 188 175 194 188 175 173 174 178 179 180 182 183 186 188 188 184 177 176 176 177 178 178 181 179 177 176 176 179 179 182 184 185 186 183 181 178 178 176 168 166 161 156 140 144 174 184 182 185 177 165 161 146 148 162 193 210 224 240 257 270 279 284 286 290
90 82 33 56 90 102 115 192 180 209 228 174 200 265 255 232 233 235 275 308 291 236 219 198 240 229 273 262 201 214 212 124 161 194 196 189 181 176 174 176 180 180 181 182 184 186 188 187 182 175 174 175 175 176 177 178 179 180 178 176 177 177 178 177 177 178 174 173 169 169 166 160 159 150 148 153 164 175 178 178 180 177 172 161 142 146 157 176 197 215 233 248 261 273 277 278 286
127 128 21 63 59 34 119 206 208 232 239 179 194 255 270 259 214 199 267 309 300 265 197 202 195 133 244 281 249 245 218 201 138 185 199 183 176 174 176 179 181 181 182 182 182 185 185 183 178 174 174 175 175 177 178 177 181 183 181 177 176 172 173 172 170 171 167 164 161 159 155 152 154 155 169 180 180 179 176 173 172 172 170 167 158 160 158 165 179 191 206 213 234 245 266 281 294
88 130 15 98 103 8 117 234 233 218 244 218 219 238 261 262 176 170 207 194 211 254 212 219 149 139 261 335 259 257 222 225 213 190 189 180 176 174 178 181 182 182 183 182 181 184 184 181 175 174 175 176 177 178 180 179 182 182 177 175 173 170 168 169 170 169 162 158 158 157 154 161 173 181 188 187 181 177 175 172 169 169 167 166 163 162 156 155 155 142 141 134 137 124 110 80 56
55 51 34 103 159 322 51 275 260 234 252 256 255 243 260 249 167 173 196 236 263 246 251 226 153 197 272 339 261 279 248 227 223 234 189 181 179 177 181 182 185 184 184 184 184 186 186 182 175 176 177 178 179 179 181 180 182 180 177 176 176 175 173 175 178 175 170 173 175 175 177 184 191 191 189 185 180 174 168 168 165 166 164 160 159 156 148 134 125 117 113 111 112 107 101 92 82
38 25 140 105 131 285 302 266 250 255 247 250 266 252 259 217 171 184 184 238 254 245 268 198 153 230 259 241 255 281 237 219 217 226 184 181 182 181 183 184 189 186 185 187 187 189 189 185 177 178 180 178 180 180 183 183 184 184 181 180 180 181 180 183 186 186 185 188 190 191 192 192 192 190 189 185 178 171 163 159 155 155 152 151 147 141 135 125 118 115 114 113 113 111 107 100 91
31 351 104 97 84 234 255 252 258 262 266 295 287 257 245 183 154 186 190 259 240 232 277 128 189 235 207 277 254 233 219 203 208 208 178 180 185 184 185 185 191 192 189 188 188 190 190 188 182 181 181 180 182 180 183 184 186 186 185 185 187 189 189 193 193 192 193 192 193 193 192 189 189 186 182 176 169 163 156 151 147 145 143 140 136 132 130 127 126 125 125 122 117 115 113 107 97
84 332 61 106 176 213 220 245 270 277 297 307 278 273 210 146 141 196 201 246 233 226 247 184 198 169 145 285 260 260 251 200 200 198 178 180 186 186 187 187 190 196 194 192 190 192 193 192 187 183 182 184 183 181 185 187 190 191 192 193 194 195 196 197 197 196 195 193 192 189 187 184 181 177 172 167 162 157 152 148 145 141 138 134 130 128 128 130 131 131 130 124 119 117 115 107 98
120 137 88 144 195 188 202 226 278 306 314 266 247 295 123 141 185 208 180 217 225 201 246 214 167 125 195 261 281 306 266 201 188 186 180 180 186 186 189 189 191 196 197 197 195 195 197 196 192 188 186 187 185 186 190 192 195 196 196 197 197 198 197 198 198 197 194 190 187 183 181 178 174 171 166 162 158 154 150 147 143 136 133 130 128 127 128 129 129 129 127 125 122 120 117 114 107
138 146 114 207 243 125 197 238 284 290 287 262 263 289 157 177 207 185 141 204 231 197 241 208 146 99 237 277 307 300 242 194 180 180 180 180 186 187 190 192 193 197 199 201 201 201 199 198 196 194 192 191 191 193 195 196 197 198 198 199 199 198 198 198 196 194 190 186 183 180 177 173 170 167 164 161 157 154 150 148 144 138 134 130 130 132 133 132 129 129 129 128 128 125 123 122 120
146 129 94 127 327 337 216 228 240 179 254 261 273 247 206 252 147 135 178 207 243 216 243 186 159 195 209 193 236 277 241 185 176 177 178 180 185 188 192 194 197 199 202 205 205 205 202 201 199 198 198 196 197 199 199 198 199 200 199 199 199 198 197 196 194 190 187 185 182 178 175 172 170 167 164 161 158 155 152 149 145 143 140 137 137 138 138 135 132 132 131 130 130 130 127 127 127
115 106 71 16 266 291 225 217 185 160 255 244 267 350 222 267 150 146 223 191 269 259 157 200 188 206 185 181 220 297 245 176 172 174 175 178 183 188 194 196 200 202 205 207 207 208 205 204 203 201 201 201 203 203 202 202 202 201 200 200 198 197 196 194 192 190 187 184 181 177 176 173 170 167 165 162 159 157 155 152 149 147 147 144 144 142 139 135 132 131 130 130 130 130 128 130 130
74 85 76 289 217 215 211 205 191 191 263 268 298 323 169 286 279 209 241 145 252 266 239 231 225 205 188 216 288 314 174 168 168 169 171 176 180 185 193 197 201 203 206 208 209 209 208 208 206 205 204 205 206 205 205 205 204 202 201 200 198 197 195 194 193 190 187 182 179 177 175 173 170 168 166 164 161 160 160 157 154 153 152 151 148 145 141 136 135 132 130 130 128 128 126 128 129
71 94 143 237 203 202 194 193 203 194 269 279 304 245 176 268 288 284 344 267 258 268 273 271 280 270 227 281 316 155 162 166 167 168 169 174 179 183 192 197 200 204 206 208 211 210 211 211 209 208 207 208 209 208 208 208 207 205 204 201 199 198 196 196 194 190 186 182 181 179 177 175 171 170 168 167 167 166 166 164 164 163 162 162 159 156 153 151 147 142 138 136 131 126 127 127 124
128 127 176 234 204 215 202 192 209 204 253 280 291 269 186 230 262 47 266 264 270 261 272 294 283 270 263 304 138 157 162 166 170 172 174 177 183 188 193 198 200 205 207 209 211 211 213 213 211 211 210 210 211 210 210 210 209 207 206 204 201 200 199 198 195 191 188 185 183 181 179 177 175 174 172 173 173 172 172 171 170 167 167 167 167 167 167 166 164 163 159 153 147 140 136 129 120
174 139 218 245 215 234 239 212 225 230 251 290 283 265 184 237 243 124 236 265 263 235 248 240 253 256 243 193 149 164 166 172 178 180 184 188 192 194 195 197 201 207 209 211 211 211 212 214 214 212 211 212 213 212 211 211 210 209 208 207 204 201 201 200 196 193 191 189 186 184 182 180 178 177 176 177 177 176 173 170 168 165 163 161 161 163 161 161 160 165 162 159 156 147 143 131 119
178 158 209 237 194 230 249 221 230 246 234 240 265 342 284 259 208 198 223 278 270 235 229 221 227 244 230 191 177 176 174 181 187 190 194 197 199 201 203 202 205 209 210 212 212 212 213 214 214 212 212 213 215 215 213 212 211 209 208 209 207 203 202 199 198 196 194 192 189 187 185 183 181 180 179 178 177 176 171 167 164 161 159 156 155 157 154 153 152 154 154 152 149 141 138 127 118
166 213 224 228 172 222 254 222 220 233 199 227 269 296 277 269 216 216 199 242 260 225 212 219 222 237 219 184 186 180 183 191 192 199 202 203 205 207 210 210 211 212 212 214 214 214 214 214 214 213 213 214 216 217 215 214 212 210 209 209 207 204 203 201 199 198 196 194 192 189 188 185 183 182 180 178 177 174 171 167 163 159 159 155 153 156 152 149 150 150 150 148 143 138 134 125 118
222 250 247 237 205 227 263 241 218 201 218 262 261 273 286 291 274 223 188 233 250 231 208 215 223 235 211 166 171 182 193 197 198 204 204 204 208 210 211 212 212 212 213 216 216 216 215 215 215 214 214 215 216 218 217 215 213 212 210 210 208 205 204 202 201 199 198 196 194 193 191 187 185 183 180 178 176 174 171 166 162 159 158 154 152 156 153 151 152 150 150 146 140 137 131 122 113
232 257 261 250 222 229 256 262 260 256 258 261 276 318 288 262 271 258 218 245 251 252 242 233 239 227 176 159 176 191 196 199 205 208 206 206 209 212 212 211 213 213 215 217 217 216 217 216 215 215 215 216 216 217 217 216 214 212 211 210 210 207 205 205 203 200 199 198 197 196 193 191 187 184 181 179 176 172 170 167 163 161 159 156 153 156 158 154 155 153 151 146 140 137 130 121 111
224 237 249 260 240 240 258 269 270 268 260 261 293 288 262 243 264 309 262 262 264 255 247 244 241 191 170 187 194 198 202 206 212 213 213 214 215 216 216 215 215 215 218 219 217 217 218 217 216 216 216 216 217 217 217 216 215 212 211 211 209 209 208 207 205 202 201 200 199 198 196 194 189 185 182 179 175 172 171 169 166 163 161 159 156 158 161 160 158 156 153 148 143 138 131 122 110
218 224 249 263 269 269 273 271 251 245 249 216 235 271 267 251 266 277 261 262 272 248 238 243 226 206 203 206 202 201 207 210 214 216 217 219 219 221 221 219 216 218 220 219 218 218 218 217 217 217 217 216 216 217 217 215 214 212 211 211 210 210 210 209 207 205 203 202 201 199 199 196 192 188 184 179 176 174 172 171 168 167 165 162 161 161 161 163 162 158 157 153 148 142 134 122 107
200 217 263 256 271 284 259 255 248 227 248 204 204 262 272 276 138 269 264 251 263 239 239 245 220 225 222 214 213 207 211 215 215 214 217 219 219 223 224 219 219 222 221 219 220 219 217 217 218 217 216 216 215 216 216 215 214 213 212 212 212 211 210 210 209 208 206 205 203 201 200 198 195 191 186 181 178 177 175 173 171 170 169 165 164 165 163 164 163 160 160 157 154 148 135 120 108
204 248 299 280 294 301 263 259 259 210 255 208 189 254 278 301 170 252 265 252 117 290 273 251 222 236 231 221 222 211 219 224 217 212 213 215 217 220 221 219 221 222 220 221 221 218 217 218 218 217 215 214 215 215 215 215 214 213 213 212 212 212 211 210 210 210 208 207 206 204 201 198 197 193 188 185 181 181 179 176 175 174 173 168 166 170 167 164 164 163 161 159 157 147 134 119 105
298 28 326 295 330 312 277 275 247 185 227 184 156 260 281 261 233 242 259 264 287 289 278 262 234 238 240 230 229 222 228 226 215 215 219 219 220 219 221 223 222 220 222 223 220 218 219 218 217 216 214 213 214 215 215 215 214 213 213 213 213 212 211 211 211 211 210 209 208 206 203 198 198 195 191 189 185 185 183 180 179 176 176 173 170 173 170 167 167 165 162 159 153 145 140 119 91
298 18 360 297 338 308 280 336 58 175 200 163 140 264 262 255 259 252 258 270 273 269 269 267 253 241 241 234 232 235 234 223 215 221 224 224 225 223 225 227 224 222 224 221 219 220 220 217 216 214 213 213 214 215 214 214 214 213 213 213 213 213 212 212 212 211 211 210 209 207 203 199 198 198 195 192 189 188 187 184 182 180 179 178 175 175 174 170 167 167 163 159 162 161 156 122 67
302 309 298 307 318 282 293 47 65 253 223 158 153 251 251 260 270 265 262 257 234 246 260 266 266 256 244 233 229 240 239 225 225 229 228 229 230 228 229 230 225 224 223 220 221 221 219 217 215 213 212 213 213 213 214 214 214 213 213 212 212 213 212 212 212 212 212 211 210 208 205 201 199 200 198 196 193 191 190 187 186 184 182 181 179 177 177 173 169 170 167 170 180 176 164 48 29
358 282 281 304 214 269 304 308 212 233 265 130 156 241 256 260 268 270 274 227 210 238 258 264 269 266 258 248 230 238 247 237 234 236 235 234 234 232 232 231 226 225 223 222 222 219 218 217 215 213 212 212 212 212 213 213 213 213 213 213 213 213 213 213 213 212 212 211 211 209 207 203 201 201 201 200 198 195 194 191 188 187 186 184 182 180 178 176 175 176 174 179 189 185 180 25 18
334 217 246 261 243 268 312 298 238 216 236 174 200 232 259 257 263 273 285 213 218 242 263 265 265 267 264 264 254 246 253 251 243 241 239 235 235 235 233 231 227 226 225 222 220 217 217 217 215 214 213 212 212 211 211 211 212 213 213 212 212 213 213 213 213 212 212 212 212 212 210 206 203 202 202 202 201 199 197 194 191 190 189 187 185 182 179 179 180 182 180 179 187 197 191 21 8
285 225 227 247 248 248 286 293 284 204 183 211 228 236 249 255 264 281 290 275 258 249 256 262 263 268 266 267 268 262 257 252 246 240 239 237 236 236 234 232 230 227 226 223 219 218 218 216 214 214 214 213 211 209 209 209 211 212 212 212 212 213 214 214 213 213 213 213 213 213 212 209 206 204 204 204 203 202 199 197 195 193 191 189 187 185 183 183 183 185 186 182 186 197 200 355 360
238 229 233 251 240 240 249 264 278 277 221 211 231 249 252 261 271 280 279 275 276 264 254 257 263 266 266 265 263 263 263 259 253 244 241 240 239 238 234 231 230 226 224 222 219 218 217 215 214 213 212 211 209 208 206 206 208 209 210 211 212 213 214 214 215 215 215 215 215 215 213 211 208 206 205 205 204 203 200 199 198 196 194 192 189 188 187 188 187 187 188 185 187 194 222 349 357
229 227 234 247 249 246 241 249 253 268 275 255 247 259 258 263 266 270 274 268 263 268 265 259 260 264 264 262 258 257 260 260 259 255 247 243 242 240 235 230 227 225 223 220 217 215 214 213 212 211 210 208 205 203 202 202 203 206 207 208 210 212 214 214 216 217 217 217 216 216 214 212 211 208 207 207 206 204 202 201 200 198 197 195 194 194 193 193 191 189 187 185 188 190 180 360 352
239 231 240 245 255 262 251 259 261 217 279 261 241 263 266 262 261 262 272 273 261 265 271 266 259 259 260 260 260 256 253 256 263 267 258 246 243 240 235 229 223 220 220 217 214 212 213 212 210 210 209 205 201 199 198 198 199 200 202 205 208 210 212 213 215 217 218 218 217 217 216 214 212 210 208 208 207 205 204 203 202 200 198 198 199 199 196 194 191 191 189 184 187 190 175 49 357
250 236 255 257 245 260 259 264 272 207 207 259 241 266 270 262 262 258 265 273 265 259 263 268 265 257 257 259 260 259 255 257 264 269 263 248 240 235 229 222 216 214 214 213 213 213 213 212 210 210 206 202 202 201 199 199 200 201 202 205 208 209 210 211 214 215 216 217 218 217 217 216 214 212 210 209 208 207 206 205 204 202 201 199 197 196 197 196 194 194 193 187 183 184 179 112 25
237 239 262 263 247 270 271 257 272 271 189 270 264 265 268 260 258 253 251 257 258 255 253 262 268 263 259 256 256 260 262 264 261 261 264 250 233 226 220 214 213 214 213 212 213 212 210 209 209 208 204 202 202 202 200 201 202 203 204 205 206 206 209 212 213 215 215 217 218 219 219 217 216 214 212 211 210 209 208 208 206 205 204 201 198 197 198 198 197 196 196 195 187 177 168 143 83
217 225 244 260 253 263 264 253 292 313 216 272 284 275 273 258 249 245 243 247 253 259 254 256 264 260 256 254 254 259 262 266 266 263 265 252 221 214 212 212 213 213 212 211 211 209 208 208 208 206 205 203 202 201 202 202 201 201 203 206 206 205 209 212 213 215 216 216 218 218 219 218 217 216 214 213 212 211 211 210 210 208 206 204 203 203 202 201 201 199 198 199 194 182 171 165 155
218 213 222 247 248 243 249 274 341 327 271 288 302 292 283 232 225 239 239 245 251 257 258 257 261 257 252 256 259 259 259 264 267 267 267 255 215 211 213 213 212 209 210 211 209 208 208 209 208 206 204 202 201 201 200 198 196 196 197 199 199 201 206 206 208 213 215 216 217 217 218 218 217 217 216 214 214 213 213 212 213 211 208 206 206 207 207 205 204 203 203 202 200 195 184 171 165
246 214 215 236 247 251 260 288 345 341 299 317 350 306 295 199 191 231 240 241 246 249 252 251 256 259 254 255 261 260 256 258 260 264 269 264 234 215 216 214 210 210 214 214 212 211 210 209 207 204 202 201 200 199 197 195 194 193 191 189 188 191 196 201 206 211 212 213 214 215 216 216 217 218 217 216 215 215 215 214 214 213 210 208 208 207 207 206 204 203 203 201 200 199 192 175 167
266 225 212 231 247 256 259 269 306 274 255 294 61 270 287 277 196 219 230 233 244 246 247 247 250 257 256 251 258 262 259 256 257 261 265 262 245 220 216 213 209 214 218 217 213 212 210 208 205 202 201 200 199 198 196 195 194 194 194 194 194 194 197 205 211 212 212 212 212 213 214 215 216 217 218 217 216 216 216 216 215 213 212 211 209 207 206 207 206 204 202 199 199 199 194 184 173
265 235 195 208 223 236 236 227 220 234 269 302 103 138 274 285 248 200 212 216 240 252 250 251 249 252 260 256 253 260 261 256 255 258 258 258 252 234 227 220 215 219 221 215 212 211 209 207 204 201 200 199 198 197 196 196 196 196 197 198 200 202 205 210 211 211 212 212 211 212 214 214 216 217 218 218 217 217 217 216 215 213 212 212 211 209 207 207 205 203 200 197 199 199 197 194 182
258 192 162 178 195 212 182 174 200 245 343 289 216 140 238 277 270 134 198 211 232 249 244 247 250 253 263 262 257 259 265 264 255 252 257 264 264 249 243 235 226 224 221 216 213 210 207 205 202 200 199 199 198 197 197 198 199 198 198 200 203 207 210 212 211 208 210 211 210 211 213 214 215 216 218 218 218 218 217 217 216 214 213 213 212 211 209 207 206 204 202 200 201 198 198 200 195
231 100 88 73 74 73 102 146 153 92 307 247 194 164 210 276 279 84 83 206 225 241 242 250 259 260 260 262 266 266 267 269 263 258 264 270 269 258 251 242 231 224 220 217 212 207 203 201 199 198 199 198 198 198 198 199 200 200 201 202 204 207 208 209 209 207 208 208 208 209 211 212 214 214 216 217 218 218 218 217 216 215 214 213 213 212 209 207 207 207 206 205 205 201 199 200 200
142 100 55 31 27 29 55 53 88 78 279 234 182 181 189 272 287 128 164 226 226 239 253 272 276 267 261 260 266 269 268 271 282 295 294 291 289 281 265 247 233 224 218 212 207 203 200 198 197 197 198 198 198 198 199 200 201 202 204 205 206 207 205 204 204 204 204 205 206 207 209 210 212 213 214 215 217 218 218 218 217 216 215 214 213 212 210 208 208 207 206 205 205 204 203 201 199
120 102 71 21 329 5 25 352 53 177 266 231 183 182 184 233 262 201 248 267 250 236 240 252 260 262 266 267 267 274 278 280 300 319 318 329 332 317 283 246 231 220 212 205 202 200 197 197 196 196 197 198 199 198 199 200 201 204 206 207 207 207 205 204 205 205 204 204 206 206 207 208 210 212 213 214 215 216 217 217 216 215 215 214 214 213 212 210 209 208 206 205 204 203 203 203 202
121 111 126 161 304 337 336 312 94 214 256 247 182 173 201 242 253 257 266 269 249 228 224 234 246 258 267 275 280 284 288 290 321 354 337 330 319 295 267 242 223 212 209 205 200 197 196 197 195 196 198 198 198 199 200 201 203 206 207 208 209 208 207 208 208 208 207 207 206 205 205 207 207 208 210 213 214 215 215 215 215 214 215 214 214 213 212 211 210 209 206 206 206 204 204 205 206
165 157 158 172 207 245 255 259 262 253 265 280 175 172 245 279 269 226 235 248 244 225 223 232 235 252 267 280 292 299 303 309 342 9 335 310 287 271 256 239 223 214 210 207 203 198 196 196 196 198 199 199 199 201 202 203 206 208 208 209 210 209 209 211 211 211 210 210 209 208 209 209 209 210 212 213 214 214 213 214 215 215 215 214 214 213 212 211 210 209 208 208 207 206 206 206 207
189 169 146 180 193 190 207 224 248 258 272 309 218 189 213 261 271 228 229 257 275 241 236 248 247 260 286 300 308 311 311 312 316 310 294 275 257 257 253 241 230 221 212 207 205 201 198 198 199 199 199 199 200 202 203 206 208 209 209 210 210 210 211 212 213 214 213 213 212 211 212 212 213 215 215 215 215 213 213 214 214 215 215 214 214 213 211 210 210 209 209 209 208 206 205 206 206
226 131 110 227 207 172 217 246 236 238 288 285 227 227 224 230 269 264 255 275 282 268 277 298 300 316 332 314 301 299 297 297 300 299 293 276 258 256 258 249 239 228 219 212 208 204 202 201 201 201 201 200 201 203 205 209 211 210 209 211 211 211 212 212 214 216 216 216 215 214 215 215 216 217 218 217 216 214 214 213 213 214 214 214 213 212 211 209 209 208 207 207 207 206 206 206 207
213 121 186 239 162 149 230 273 293 84 265 249 222 253 275 297 284 275 271 271 267 278 302 310 300 317 326 298 282 283 286 287 289 294 299 296 278 256 249 244 240 234 226 219 215 212 209 205 203 203 203 202 203 205 207 209 211 212 212 211 211 212 212 214 215 216 216 216 216 217 217 217 218 218 218 218 217 216 214 213 212 212 213 213 213 212 211 209 208 207 207 207 206 205 205 207 208
131 170 227 257 52 129 183 263 323 268 252 246 241 260 272 284 275 312 11 329 287 287 312 312 289 284 294 293 289 285 281 282 287 290 292 288 271 258 255 246 241 239 237 232 226 223 221 217 210 206 203 204 206 207 208 209 210 213 214 213 212 213 213 215 216 217 216 214 216 217 217 218 218 218 218 218 217 216 215 213 212 212 211 212 212 211 210 209 208 207 207 208 207 205 205 206 209
143 195 237 109 188 249 163 190 233 241 249 248 242 259 263 234 245 287 313 284 277 276 279 294 284 282 297 301 295 293 298 304 309 308 304 304 291 257 248 255 252 245 242 239 233 230 229 228 223 215 211 209 209 208 207 209 210 213 216 217 216 215 215 216 216 216 215 214 216 217 216 217 218 217 216 217 216 215 214 213 212 212 211 210 210 210 209 208 207 207 206 207 207 206 206 206 207
134 251 325 118 175 200 186 195 199 232 252 256 240 247 257 241 225 226 239 241 247 253 245 255 267 269 274 277 283 303 322 329 328 326 324 327 321 288 249 266 268 256 248 241 236 233 230 230 229 225 221 217 214 211 209 210 212 213 216 218 219 218 217 217 216 215 215 215 217 217 216 217 216 215 215 215 216 215 214 212 211 210 210 209 208 208 208 207 206 206 206 206 205 205 206 207 207
183 222 242 228 208 200 239 233 185 224 253 260 252 245 249 262 237 210 234 235 209 203 221 252 264 267 271 284 303 320 334 327 318 315 313 320 322 323 331 333 320 278 257 247 239 234 230 229 229 228 227 222 219 215 212 212 213 214 215 217 219 220 219 217 216 215 216 217 217 217 217 217 215 215 215 214 215 215 214 212 210 210 209 209 207 206 206 205 204 205 206 206 205 204 205 207 206
179 205 228 233 230 247 273 255 217 217 248 250 255 256 245 255 264 247 232 214 202 202 218 252 276 292 298 308 314 318 320 300 294 298 300 310 322 325 327 325 318 290 261 255 249 239 230 227 227 228 229 228 225 221 217 216 215 215 216 218 220 221 220 218 216 216 217 217 217 217 218 216 215 215 215 214 214 213 213 211 209 209 209 208 207 206 205 204 203 204 204 205 205 204 205 206 205